Weather in Verkhny Kuzhebar

Russia / Krasnoyarsk Krai     53°22′16″N   93°14′05″E
В апреле 2022 года жителям России запретили посещать сайт meteo.paraplan.net по решению Генеральной прокуратуры. Аудитория сайта уменьшилась в 10 раз. Владельцы сайта не видят смысла в поддержке погодного сервера в таких условиях. Сайт будет закрыт в октябре.
temp.,
°C
wind,
m/s
gust,
m/s
humid.,
%
clouds,
%
prec.,
mm/h
press.,
hPa
HPBL,
m
4 october, tue
tue401:00−3se11642 0.0 103610
04:00−4ese11645 0.0 103510
07:00−4ese11655 0.0 103610
10:00+3ne11405 0.0 1035334
13:00+8nnw113043 0.0 1033762
16:00+8nw11325 0.0 1031796
19:00+1sw11620 0.0 103310
22:00−2sse11745 0.0 103410
5 october, wed
wed501:00−2ese11790 0.0 103410
04:00−3ese11792 0.0 103410
07:00−3ese11775 0.0 103410
10:00+4ne114988 0.0 1032249
13:00+8nnw1040100 0.0 1029461
16:00+8wnw2352100 0.0 1027183
19:00+4w31175100 0.1 1029983
22:00+1wsw2799100 4.9 1030412
6 october, thu
thu601:00+1wsw31099100 11.7 1030600
04:00+2w3899100 2.1 1030620
07:00+1wsw12100100 3.4 1030192
10:00+1w1299100 1.0 1030193
13:00+2w1199100 1.9 1030186
16:00+2sw12100100 1.0 1030145
19:00+1ssw13100100 1.6 1032144
22:00+1w1399100 0.6 1033218
7 october, fri
fri701:00+1wsw1399100 1.1 1035233
04:00+1w11100100 0.6 103572
07:00+1sw00100100 1.8 103660
10:00+1e119384 0.3 1036341
13:00+4ene218259 0.3 1035631
16:00+4ene118094 0.0 1034679
19:000e119550 0.0 103518
22:00−4e1198100 0.0 103515
8 october, sat
sat801:00−4e1196100 0.0 103441
04:00−3e129598 0.0 103361
07:00−4e129672 0.0 103249
10:00+3e248099 0.0 1030214
13:00+7e3576100 0.0 1028460
16:00+7e368650 0.0 1026270
19:00+1ese229497 0.0 102644
22:00+1ese2390100 0.0 102457